| time (UTC) | temp F | wind direction | speed MPH | gust MPH | rain 1hr in | rain 24hr in | rain mn in | humidity % | barometer mb |
| 20260505041555 | 78 | 227 | 8.0 | 15.0 | 0.00 | 0.00 | 0.00 | 22 | 1009.2 |
| 20260505040055 | 79 | 225 | 10.0 | 14.0 | 0.00 | 0.00 | 0.00 | 20 | 1009.0 |
| 20260505034555 | 80 | 234 | 12.0 | 17.0 | 0.00 | 0.00 | 0.00 | 19 | 1008.9 |
| 20260505033053 | 80 | 238 | 12.0 | 18.0 | 0.00 | 0.00 | 0.00 | 18 | 1009.1 |
| 20260505031557 | 81 | 239 | 13.0 | 21.0 | 0.00 | 0.00 | 0.00 | 17 | 1008.8 |
| 20260505030055 | 81 | 238 | 13.0 | 18.0 | 0.00 | 0.00 | 0.00 | 17 | 1008.8 |
| 20260505024554 | 81 | 236 | 12.0 | 19.0 | 0.00 | 0.00 | 0.00 | 16 | 1008.5 |
| 20260505023057 | 82 | 231 | 13.0 | 21.0 | 0.00 | 0.00 | 0.00 | 16 | 1008.5 |
| 20260505021558 | 83 | 230 | 16.0 | 23.0 | 0.00 | 0.00 | 0.00 | 15 | 1008.1 |
| 20260505020104 | 83 | 229 | 16.0 | 23.0 | 0.00 | 0.00 | 0.00 | 15 | 1008.1 |
| 20260505014558 | 83 | 246 | 18.0 | 26.0 | 0.00 | 0.00 | 0.00 | 15 | 1008.0 |
| 20260505013102 | 84 | 246 | 19.0 | 25.0 | 0.00 | 0.00 | 0.00 | 14 | 1007.9 |
| 20260505011555 | 84 | 239 | 19.0 | 29.0 | 0.00 | 0.00 | 0.00 | 13 | 1008.0 |
| 20260505010111 | 85 | 240 | 18.0 | 26.0 | 0.00 | 0.00 | 0.00 | 12 | 1007.7 |
| 20260505004555 | 85 | 234 | 19.0 | 27.0 | 0.00 | 0.00 | 0.00 | 12 | 1007.6 |
| 20260505003058 | 86 | 248 | 20.0 | 31.0 | 0.00 | 0.00 | 0.00 | 11 | 1008.0 |
| 20260505001555 | 87 | 234 | 22.0 | 34.0 | 0.00 | 0.00 | 0.00 | 10 | 1008.1 |
| 20260505000058 | 87 | 246 | 23.0 | 31.0 | 0.00 | 0.00 | 0.00 | 11 | 1008.2 |
| 20260504234555 | 87 | 252 | 19.0 | 29.0 | 0.00 | 0.00 | 0.00 | 11 | 1008.3 |
| 20260504233108 | 87 | 256 | 19.0 | 28.0 | 0.00 | 0.00 | 0.00 | 11 | 1008.6 |
| 20260504231551 | 87 | 246 | 21.0 | 32.0 | 0.00 | 0.00 | 0.00 | 13 | 1008.7 |
| 20260504224551 | 87 | 238 | 18.0 | 35.0 | 0.00 | 0.00 | 0.00 | 16 | 1009.1 |
| 20260504223059 | 87 | 234 | 23.0 | 33.0 | 0.00 | 0.00 | 0.00 | 16 | 1009.0 |
| 20260504221555 | 86 | 254 | 21.0 | 29.0 | 0.00 | 0.00 | 0.00 | 16 | 1009.1 |
| 20260504220056 | 85 | 247 | 23.0 | 32.0 | 0.00 | 0.00 | 0.00 | 15 | 1009.4 |
| 20260504214556 | 86 | 261 | 21.0 | 36.0 | 0.00 | 0.00 | 0.00 | 13 | 1009.6 |
| 20260504213058 | 88 | 238 | 18.0 | 30.0 | 0.00 | 0.00 | 0.00 | 14 | 1009.8 |
| 20260504211552 | 87 | 240 | 22.0 | 33.0 | 0.00 | 0.00 | 0.00 | 11 | 1009.9 |
| 20260504210106 | 86 | 248 | 16.0 | 30.0 | 0.00 | 0.00 | 0.00 | 16 | 1010.0 |
| 20260504204602 | 85 | 236 | 22.0 | 35.0 | 0.00 | 0.00 | 0.00 | 18 | 1010.5 |
| 20260504203108 | 86 | 263 | 20.0 | 31.0 | 0.00 | 0.00 | 0.00 | 18 | 1010.6 |
| 20260504201609 | 85 | 219 | 14.0 | 27.0 | 0.00 | 0.00 | 0.00 | 21 | 1010.9 |
| 20260504194613 | 85 | 234 | 17.0 | 23.0 | 0.00 | 0.00 | 0.00 | 23 | 1011.4 |
| 20260504193053 | 84 | 262 | 14.0 | 23.0 | 0.00 | 0.00 | 0.00 | 25 | 1011.4 |
| 20260504191558 | 84 | 252 | 16.0 | 24.0 | 0.00 | 0.00 | 0.00 | 24 | 1011.6 |
| 20260504190121 | 84 | 236 | 12.0 | 23.0 | 0.00 | 0.00 | 0.00 | 29 | 1011.7 |
| 20260504184559 | 83 | 253 | 16.0 | 23.0 | 0.00 | 0.00 | 0.00 | 30 | 1012.3 |
| 20260504183056 | 82 | 235 | 14.0 | 21.0 | 0.00 | 0.00 | 0.00 | 33 | 1012.4 |
| 20260504181555 | 81 | 223 | 17.0 | 23.0 | 0.00 | 0.00 | 0.00 | 34 | 1012.5 |
| 20260504180054 | 82 | 230 | 16.0 | 25.0 | 0.00 | 0.00 | 0.00 | 33 | 1012.5 |
| 20260504174555 | 82 | 241 | 16.0 | 24.0 | 0.00 | 0.00 | 0.00 | 35 | 1012.7 |
| 20260504173052 | 82 | 216 | 15.0 | 23.0 | 0.00 | 0.00 | 0.00 | 37 | 1013.2 |
| 20260504171553 | 80 | 202 | 14.0 | 21.0 | 0.00 | 0.00 | 0.00 | 39 | 1012.9 |
| 20260504081600 | 62 | 171 | 9.0 | 14.0 | 0.00 | 0.00 | 0.00 | 61 | 1013.2 |
| 20260504060120 | 64 | 188 | 13.0 | 20.0 | 0.00 | 0.00 | 0.00 | 57 | 1014.8 |